Terminal Aerodrome Forecast
Issued by NWS Quad Cities IA IL

Home | Current Version | Previous Version | Text Only | Print | Product List | Glossary On
Versions: 1 2 3 4 5 6 7 8 9 10 11 12 13 14 15 16 17 18 19 20 21 22 23 24
000
FTUS43 KDVN 020500
TAFMLI
TAF
KMLI 020520Z 0206/0306 25005KT P6SM SCT250
     FM020900 30008KT P6SM SCT250
     FM021600 VRB03KT P6SM BKN200
     FM022100 14007KT P6SM BKN080=

USA.gov is the U.S. government's official web portal to all federal, state and local government web resources and services.